TimeCST,TemperatureF,Dew PointF,Humidity,Sea Level PressureIn,VisibilityMPH,Wind Direction,Wind SpeedMPH,Gust SpeedMPH,PrecipitationIn,Events,Conditions,WindDirDegrees,DateUTC
12:13 AM,17.6,5.0,58,30.09,10.0,South,13.8,-,N/A,,Scattered Clouds,190,2013-01-25 06:13:00
12:33 AM,17.6,5.0,58,30.09,10.0,SSW,9.2,-,N/A,,Overcast,200,2013-01-25 06:33:00
12:52 AM,17.6,5.0,58,30.08,10.0,SSW,11.5,-,N/A,,Mostly Cloudy,210,2013-01-25 06:52:00
1:13 AM,17.6,5.0,58,30.07,10.0,SSW,11.5,-,N/A,,Overcast,210,2013-01-25 07:13:00
1:33 AM,17.6,5.0,58,30.06,10.0,SSW,9.2,-,N/A,,Overcast,210,2013-01-25 07:33:00
1:53 AM,17.6,5.0,58,30.03,10.0,SSW,15.0,-,N/A,,Overcast,200,2013-01-25 07:53:00
2:13 AM,17.6,5.0,58,30.03,10.0,SSW,16.1,-,N/A,,Mostly Cloudy,210,2013-01-25 08:13:00
2:33 AM,17.6,5.0,58,30.04,10.0,SSW,12.7,-,N/A,,Scattered Clouds,210,2013-01-25 08:33:00
2:52 AM,15.8,5.0,62,30.03,10.0,SW,11.5,19.6,N/A,,Clear,220,2013-01-25 08:52:00
3:13 AM,15.8,5.0,62,30.02,10.0,SW,13.8,18.4,N/A,,Clear,220,2013-01-25 09:13:00
3:33 AM,14.0,5.0,67,30.02,10.0,SW,11.5,-,N/A,,Clear,230,2013-01-25 09:33:00
3:52 AM,14.0,5.0,67,30.02,10.0,SW,11.5,17.3,N/A,,Clear,230,2013-01-25 09:52:00
4:13 AM,14.0,5.0,67,30.00,10.0,SW,11.5,-,N/A,,Clear,230,2013-01-25 10:13:00
4:33 AM,14.0,5.0,67,30.00,10.0,SW,9.2,-,N/A,,Clear,230,2013-01-25 10:33:00
4:52 AM,14.0,5.0,67,30.00,10.0,SW,11.5,-,N/A,,Clear,230,2013-01-25 10:52:00
5:13 AM,14.0,5.0,67,30.00,10.0,WSW,8.1,-,N/A,,Clear,240,2013-01-25 11:13:00
5:33 AM,14.0,5.0,67,29.98,10.0,WSW,10.4,-,N/A,,Clear,240,2013-01-25 11:33:00
5:52 AM,15.8,6.8,68,29.98,10.0,WSW,11.5,-,N/A,,Mostly Cloudy,250,2013-01-25 11:52:00
6:13 AM,17.6,8.6,68,29.98,10.0,WSW,15.0,-,N/A,,Overcast,250,2013-01-25 12:13:00
6:30 AM,17.6,8.6,68,29.98,10.0,West,13.8,18.4,N/A,,Overcast,260,2013-01-25 12:30:00
6:53 AM,17.6,8.6,68,29.98,10.0,West,13.8,19.6,N/A,,Overcast,260,2013-01-25 12:53:00
7:33 AM,19.4,10.4,68,29.99,10.0,West,13.8,-,N/A,,Overcast,280,2013-01-25 13:33:00
7:53 AM,19.4,12.2,74,30.00,10.0,WNW,11.5,-,N/A,,Overcast,290,2013-01-25 13:53:00
8:12 AM,21.2,14.0,74,30.00,10.0,WNW,16.1,-,N/A,,Overcast,290,2013-01-25 14:12:00
8:33 AM,21.2,15.8,80,30.00,10.0,WNW,15.0,23.0,N/A,,Overcast,300,2013-01-25 14:33:00
8:53 AM,23.0,17.6,80,30.00,10.0,WNW,16.1,23.0,N/A,,Overcast,300,2013-01-25 14:53:00
9:12 AM,23.0,17.6,80,30.01,10.0,WNW,19.6,26.5,N/A,,Overcast,300,2013-01-25 15:12:00
9:33 AM,24.8,17.6,74,30.01,10.0,NW,24.2,33.4,N/A,,Overcast,310,2013-01-25 15:33:00
9:53 AM,24.8,17.6,74,30.02,10.0,WNW,12.7,26.5,N/A,,Overcast,300,2013-01-25 15:53:00
10:12 AM,24.8,17.6,74,30.03,10.0,WNW,16.1,23.0,N/A,,Overcast,300,2013-01-25 16:12:00
10:33 AM,26.6,17.6,69,30.03,10.0,NW,15.0,21.9,N/A,,Overcast,310,2013-01-25 16:33:00
10:53 AM,26.6,17.6,69,30.04,7.0,NW,23.0,28.8,N/A,,Overcast,310,2013-01-25 16:53:00
11:13 AM,26.6,17.6,69,30.06,10.0,WNW,21.9,31.1,N/A,,Overcast,300,2013-01-25 17:13:00
11:33 AM,26.6,17.6,69,30.06,7.0,NW,17.3,25.3,N/A,,Overcast,320,2013-01-25 17:33:00
11:53 AM,24.8,17.6,74,30.07,10.0,NW,19.6,26.5,N/A,,Overcast,320,2013-01-25 17:53:00
12:13 PM,26.6,17.6,69,30.07,10.0,NW,26.5,-,N/A,,Overcast,320,2013-01-25 18:13:00
12:33 PM,24.8,14.0,64,30.07,10.0,NW,25.3,31.1,N/A,,Overcast,320,2013-01-25 18:33:00
12:53 PM,23.0,12.2,63,30.08,10.0,NW,24.2,32.2,N/A,,Mostly Cloudy,320,2013-01-25 18:53:00
1:13 PM,23.0,12.2,63,30.08,10.0,NW,21.9,27.6,N/A,,Scattered Clouds,320,2013-01-25 19:13:00
1:33 PM,23.0,10.4,59,30.09,10.0,NW,21.9,31.1,N/A,,Scattered Clouds,320,2013-01-25 19:33:00
1:53 PM,23.0,8.6,54,30.10,10.0,NW,21.9,28.8,N/A,,Clear,320,2013-01-25 19:53:00
2:13 PM,21.2,5.0,50,30.10,10.0,NW,21.9,28.8,N/A,,Clear,320,2013-01-25 20:13:00
2:33 PM,21.2,5.0,50,30.10,10.0,NW,25.3,31.1,N/A,,Clear,320,2013-01-25 20:33:00
2:52 PM,19.4,3.2,49,30.11,10.0,NW,20.7,26.5,N/A,,Clear,310,2013-01-25 20:52:00
3:13 PM,19.4,3.2,49,30.12,10.0,NNW,20.7,-,N/A,,Clear,330,2013-01-25 21:13:00
3:33 PM,17.6,1.4,49,30.12,10.0,NNW,21.9,27.6,N/A,,Clear,330,2013-01-25 21:33:00
3:52 PM,17.6,1.4,49,30.13,10.0,NW,24.2,28.8,N/A,,Clear,320,2013-01-25 21:52:00
4:13 PM,17.6,3.2,53,30.14,10.0,NW,17.3,-,N/A,,Clear,320,2013-01-25 22:13:00
4:33 PM,15.8,1.4,53,30.15,10.0,NW,19.6,25.3,N/A,,Clear,320,2013-01-25 22:33:00
4:52 PM,14.0,1.4,57,30.15,10.0,NNW,20.7,24.2,N/A,,Clear,330,2013-01-25 22:52:00
5:13 PM,12.2,1.4,62,30.16,10.0,NNW,18.4,23.0,N/A,,Clear,330,2013-01-25 23:13:00
5:33 PM,12.2,1.4,62,30.16,10.0,NNW,13.8,20.7,N/A,,Clear,340,2013-01-25 23:33:00
5:52 PM,10.4,1.4,67,30.17,10.0,NNW,16.1,21.9,N/A,,Clear,330,2013-01-25 23:52:00
6:13 PM,10.4,1.4,67,30.17,10.0,NNW,13.8,23.0,N/A,,Clear,330,2013-01-26 00:13:00
6:32 PM,10.4,1.4,67,30.18,10.0,NNW,15.0,21.9,N/A,,Clear,330,2013-01-26 00:32:00
6:53 PM,10.4,-0.4,62,30.19,10.0,NNW,16.1,20.7,N/A,,Clear,330,2013-01-26 00:53:00
7:13 PM,8.6,-0.4,67,30.20,10.0,NW,15.0,20.7,N/A,,Clear,320,2013-01-26 01:13:00
7:32 PM,8.6,-0.4,67,30.21,10.0,NNW,13.8,-,N/A,,Clear,330,2013-01-26 01:32:00
7:53 PM,8.6,-0.4,67,30.21,10.0,NNW,11.5,17.3,N/A,,Clear,330,2013-01-26 01:53:00
8:13 PM,8.6,-0.4,67,30.22,10.0,NNW,9.2,-,N/A,,Clear,340,2013-01-26 02:13:00
8:32 PM,6.8,-0.4,72,30.23,10.0,NW,11.5,16.1,N/A,,Clear,320,2013-01-26 02:32:00
8:53 PM,6.8,-2.2,67,30.23,10.0,NNW,11.5,-,N/A,,Clear,330,2013-01-26 02:53:00
9:13 PM,6.8,-2.2,67,30.23,10.0,NNW,9.2,17.3,N/A,,Clear,330,2013-01-26 03:13:00
9:32 PM,6.8,-2.2,67,30.24,10.0,NNW,10.4,-,N/A,,Clear,330,2013-01-26 03:32:00
9:53 PM,5.0,-2.2,72,30.25,10.0,NNW,10.4,-,N/A,,Clear,330,2013-01-26 03:53:00
10:13 PM,5.0,-2.2,72,30.25,10.0,NNW,5.8,-,N/A,,Clear,340,2013-01-26 04:13:00
10:52 PM,5.0,-2.2,72,30.25,10.0,NNW,5.8,-,N/A,,Clear,340,2013-01-26 04:52:00
11:13 PM,5.0,-2.2,72,30.25,10.0,North,3.5,-,N/A,,Clear,350,2013-01-26 05:13:00
11:32 PM,5.0,-2.2,72,30.25,10.0,North,4.6,-,N/A,,Clear,350,2013-01-26 05:32:00
11:53 PM,5.0,-2.2,72,30.25,10.0,Calm,Calm,-,N/A,,Clear,0,2013-01-26 05:53:00